Regional Weather Roundup
Issued by NWS

Home | Current Version | Previous Version | Text Only | Print | Product List | Glossary On
Versions: 1 2 3 4 5 6 7 8 9 10 11 12 13 14 15 16 17 18 19 20 21 22 23 24 25 26 27 28 29 30 31 32 33 34 35 36 37 38 39 40 41 42 43 44 45 46 47 48 49 50
000
ASUS43 KDTX 182110
RWRMI
MICHIGAN HOURLY REGIONAL WEATHER ROUNDUP
NATIONAL WEATHER SERVICE DETROIT/PONTIAC MI
400 PM EST MON DEC 18 2017

NOTE: "FAIR" INDICATES FEW OR NO CLOUDS BELOW 12,000 FEET WITH NO
SIGNIFICANT WEATHER AND/OR OBSTRUCTION TO VISIBILITY.

MIZ047>049-052>055-059>063-066>070-074>076-081>083-182200-
SOUTHEAST LOWER MICHIGAN

CITY           SKY/WX    TMP DP  RH WIND       PRES   REMARKS
ALMA           CLOUDY    39  37  92 SW12G17   29.81S FOG     WCI  31
ANN ARBOR      CLOUDY    39  39 100 S12       29.86S FOG     WCI  32
BAD AXE        FOG       36  36 100 W6        29.80S VSB 1/4 WCI  31
CARO           CLOUDY    38  36  93 SW10      29.80R WCI  31
DETROIT CITY   CLOUDY    40  39  97 SW13      29.86S WCI  32
DETROIT        LGT RAIN  42  39  89 SW14      29.87S FOG
FLINT          CLOUDY    38  37  97 SW9       29.83S FOG     WCI  31
GROSSE ILE     LGT RAIN  41  39  92 SW9       29.87S
HILLSDALE      DRIZZLE   41  37  87 SW7       29.86R
HOWELL         CLOUDY    39  39  99 SW7       29.83S FOG     WCI  34

CITY           SKY/WX    TMP DP  RH WIND       PRES   REMARKS
JACKSON        CLOUDY    42  39  89 SW14      29.85R FOG
LAMBERTVILLE   CLOUDY    44  40  86 SW9       29.89S
LANSING        CLOUDY    39  39 100 SW10      29.83S FOG     WCI  32
LAPEER         CLOUDY    39  38  97 SW8       29.82S WCI  34
MASON          CLOUDY    41  37  87 SW7       29.84S FOG
MONROE         CLOUDY    42  39  89 SW8       29.87S
MT. CLEMENS    CLOUDY    39  39 100 SW9       29.83F FOG     WCI  33
PONTIAC        LGT RAIN  39  39 100 SW7       29.82F FOG     WCI  34
PORT HOPE        N/A     37  35  92 VRB3      29.77F
PORT HURON     CLOUDY    37  36  93 S7        29.84F FOG     WCI  32
TRI CITIES     CLOUDY    37  37 100 SW9       29.81R FOG     WCI  30
MIDLAND        CLOUDY    38  36  92 SW9       29.79S FOG     WCI  32
TROY           CLOUDY    40  39  95 SW8       29.86S FOG     WCI  35
SAGINAW HB     CLOUDY    37  36  93 SW9       29.81R WCI  31
$$
MIZ043>046-050>051-056>058-064>065-071>073-077>080-182200-
SOUTHWEST LOWER MICHIGAN

CITY           SKY/WX    TMP DP  RH WIND       PRES   REMARKS
BATTLE CREEK   LGT RAIN  41  40  96 SW13      29.85R FOG
BENTON HARBOR  CLOUDY    43  39  86 SW17      29.86S
BIG RAPIDS     CLOUDY    34  33  94 W6        29.78F WCI  29
COLDWATER      LGT RAIN  42  42 100 SW10      29.87R
FREMONT        CLOUDY    36  32  86 SW6       29.80S FOG     WCI  31
HOLLAND        PTCLDY    41  36  82 W13       29.84S
GRAND RAPIDS   MOCLDY    39  36  89 W12       29.82S WCI  32
IONIA          CLOUDY    39  37  92 SW12      29.81S WCI  32
KALAMAZOO      LGT RAIN  41  39  93 SW8       29.86S FOG
LUDINGTON      CLOUDY    35  32  88 SW9G17    29.79F FOG     WCI  27
MARSHALL       RAIN      40  40  98 W8        29.85S WCI  35
MOUNT PLEASANT CLOUDY    37  36  94 W7        29.79R FOG     WCI  32
MUSKEGON       CLOUDY    39  32  76 W9        29.83S HAZE    WCI  33
SOUTH HAVEN    MOCLDY    42  40  91 SW16G24   29.85S
$$
MIZ016>042-182200-
NORTHERN LOWER MICHIGAN

CITY           SKY/WX    TMP DP  RH WIND       PRES   REMARKS
ALPENA         CLOUDY    34  32  92 W3        29.75S
BEAVER ISLAND  CLOUDY    34  32  92 SW13G21   29.71F FOG     WCI  25
BELLAIRE       CLOUDY    34  33  98 S6        29.75F FOG     WCI  28
CADILLAC       CLOUDY    32  32  99 W12G17    29.74F FOG     WCI  23
CHARLEVOIX     CLOUDY    34  34  99 S8        29.76F FOG     WCI  27
FRANKFORT      CLOUDY    36  34  92 SW8G16    29.77S FOG     WCI  30
GAYLORD        CLOUDY    30  28  92 SW13      29.72R FOG     WCI  20
GRAYLING       CLOUDY    32  31  94 W5        29.75S FOG     WCI  28
HARBOR SPRINGS CLOUDY    33  32  96 SW10G18   29.73S FOG     WCI  25
HOUGHTON LAKE  CLOUDY    33  31  92 W12       29.76R FOG     WCI  24
MANISTEE       CLOUDY    35  32  88 SW8       29.78F FOG     WCI  29
OSCODA         CLOUDY    33  31  94 SW7       29.76S FOG     WCI  27
PELLSTON       CLOUDY    34  32  92 S8        29.73S FOG     WCI  27
ROGERS CITY    CLOUDY    34  31  88 W7        29.75R FOG     WCI  28
TRAVERSE CITY  CLOUDY    35  32  88 W7        29.75F FOG     WCI  29
$$
MIZ007>008-015-182200-
EASTERN UPPER MICHIGAN

CITY           SKY/WX    TMP DP  RH WIND       PRES   REMARKS
MACKINAC ISLAN CLOUDY    35  35  98 SW12      29.71S FOG     WCI  27
NEWBERRY       CLOUDY    31  30  97 SW9       29.67S FOG     WCI  23
S. S. MARIE    FOG       30  28  92 SE3       29.69S VSB 1/4
MUNISING         N/A     31  30  96 S7        29.66S WCI  24
$$
MIZ004>006-011>014-085-182200-
CENTRAL UPPER MICHIGAN

CITY           SKY/WX    TMP DP  RH WIND       PRES   REMARKS
MANISTIQUE     CLOUDY    30  25  81 SW5       29.69F HAZE    WCI  25
ESCANABA       CLOUDY    32  27  81 SW8       29.70F WCI  25
MENOMINEE      CLOUDY    33  28  81 W12       29.75S WCI  24
SAWYER-GWINN   MOCLDY    32  28  86 SW9       29.65S WCI  24
$$
MIZ001>003-009>011-084-182200-
WESTERN UPPER MICHIGAN

CITY           SKY/WX    TMP DP  RH WIND       PRES   REMARKS
IRON MOUNTAIN  PTCLDY    33  27  78 S7        29.65  WCI  27
HOUGHTON       MOCLDY    37  26  64 SW12      29.56F WCI  29
COPPER HARBOR    N/A     34  27  75 SW8       29.57F WCI  27
IRONWOOD       CLOUDY    33  28  81 SW13G20   29.60F WCI  24
$$

ABBREVIATIONS USED IN REMARKS
   TC - TEMPERATURE IN CELSIUS
  WCI - WIND CHILL INDEX
   HX - HEAT INDEX
  VSB - VISIBILITY





USA.gov is the U.S. government's official web portal to all federal, state and local government web resources and services.